Location: Auckland
(36.8670°S, 174.7670°E)
Time: 23:46:59
(UTC+13:00)

Cosmos 1515 Rocket - Pass Details

Date: 24 January 2019
Orbit: 607 x 629 km, 82.5° (Epoch: 17 February)

Event Time Altitude Azimuth Distance (km) Brightness Sun altitude
Exits shadow 21:23:49 - 15° (NNE) 2,622 6.3 -8.8°
Reaches altitude 10° 21:25:25 10° 21° (NNE) 2,012 5.7 -9.1°
Maximum altitude 21:29:32 38° 89° (E) 978 4.2 -9.8°
Drops below altitude 10° 21:33:43 10° 156° (SSE) 2,038 6.3 -10.5°
Sets 21:36:05 0° 164° (SSE) 2,953 7.3 -10.9°
